2023/09/11 00:00:00,26.6,20.0
2023/09/11 00:10:00,26.6,19.9
2023/09/11 00:20:00,26.5,20.0
2023/09/11 00:30:00,26.6,20.0
2023/09/11 00:40:00,31.4,19.8
2023/09/11 00:50:00,36.3,20.1
2023/09/11 01:00:00,26.6,19.8
2023/09/11 01:10:00,26.6,19.9
2023/09/11 01:20:00,26.6,19.8
2023/09/11 01:30:00,26.6,19.8
2023/09/11 01:40:00,26.6,19.7
2023/09/11 01:50:00,26.5,19.8
2023/09/11 02:00:00,26.4,19.7
2023/09/11 02:10:00,26.2,19.7
2023/09/11 02:20:00,26.0,19.6
2023/09/11 02:30:00,26.3,19.9
2023/09/11 02:40:00,26.3,19.5
2023/09/11 02:50:00,26.3,19.4
2023/09/11 03:00:00,26.4,19.3
2023/09/11 03:10:00,26.3,19.2
2023/09/11 03:20:00,26.3,19.1
2023/09/11 03:30:00,26.4,19.1
2023/09/11 03:40:00,26.5,19.7
2023/09/11 03:50:00,26.3,19.0
2023/09/11 04:00:00,26.3,18.8
2023/09/11 04:10:00,26.3,18.8
2023/09/11 04:20:00,26.4,18.6
2023/09/11 04:30:00,26.3,18.6
2023/09/11 04:40:00,26.4,18.8
2023/09/11 04:50:00,26.3,18.6
2023/09/11 05:00:00,26.4,18.4
2023/09/11 05:10:00,26.2,19.1
2023/09/11 05:20:00,26.4,18.7
2023/09/11 05:30:00,26.6,18.7
2023/09/11 05:40:00,26.6,18.8
2023/09/11 05:50:00,26.5,18.8
2023/09/11 06:00:00,26.5,19.2
2023/09/11 06:10:00,26.5,18.9
2023/09/11 06:20:00,26.6,19.0
2023/09/11 06:30:00,26.4,19.1
2023/09/11 06:40:00,26.4,19.3
2023/09/11 06:50:00,26.5,19.3
2023/09/11 07:00:00,26.5,19.6
2023/09/11 07:10:00,26.6,20.0
2023/09/11 07:20:00,26.7,20.3
2023/09/11 07:30:00,26.7,20.4
2023/09/11 07:40:00,26.8,20.5
2023/09/11 07:50:00,26.9,20.7
2023/09/11 08:00:00,26.9,21.1
2023/09/11 08:10:00,26.8,20.8
2023/09/11 08:20:00,26.9,20.8
2023/09/11 08:30:00,26.7,21.1
2023/09/11 08:40:00,26.7,21.5
2023/09/11 08:50:00,26.8,21.4
2023/09/11 09:00:00,26.6,21.7
2023/09/11 09:10:00,26.7,21.6
2023/09/11 09:20:00,26.3,21.7
2023/09/11 09:30:00,25.5,22.1
2023/09/11 09:40:00,25.9,22.1
2023/09/11 09:50:00,26.5,22.1
2023/09/11 10:00:00,25.8,22.1
2023/09/11 10:10:00,26.3,22.8
2023/09/11 10:20:00,26.5,23.3
2023/09/11 10:30:00,26.2,23.6
2023/09/11 10:40:00,25.5,24.6
2023/09/11 10:50:00,25.0,25.4
2023/09/11 11:00:00,25.7,24.6
2023/09/11 11:10:00,25.4,25.1
2023/09/11 11:20:00,---,25.3
2023/09/11 11:30:00,24.3,25.6
2023/09/11 11:40:00,25.3,24.6
2023/09/11 11:50:00,24.8,25.4
2023/09/11 12:00:00,---,26.2
2023/09/11 12:10:00, 0.0,25.8
2023/09/11 12:20:00,25.5,25.1
2023/09/11 12:30:00,26.2,25.5
2023/09/11 12:40:00,26.1,26.6
2023/09/11 12:50:00,26.0,26.8
2023/09/11 13:00:00,24.0,27.7
2023/09/11 13:10:00,23.3,27.5
2023/09/11 13:20:00,22.1,26.7
2023/09/11 13:30:00,22.0,27.6
2023/09/11 13:40:00,22.9,27.1
2023/09/11 13:50:00,25.6,25.4
2023/09/11 14:00:00,26.3,24.1
2023/09/11 14:10:00,26.2,22.6
2023/09/11 14:20:00,26.1,22.3
2023/09/11 14:30:00,26.5,21.5
2023/09/11 14:40:00,26.6,20.8
2023/09/11 14:50:00,26.1,20.5
2023/09/11 15:00:00,25.7,20.8
2023/09/11 15:10:00,25.6,21.0
2023/09/11 15:20:00,25.7,20.6
2023/09/11 15:30:00,25.8,20.8
2023/09/11 15:40:00,26.0,21.2
2023/09/11 15:50:00,25.8,21.5
2023/09/11 16:00:00,26.0,21.4
2023/09/11 16:10:00,26.0,21.3
2023/09/11 16:20:00,26.1,20.8
2023/09/11 16:30:00,25.9,20.9
2023/09/11 16:40:00,26.0,20.7
2023/09/11 16:50:00,25.9,20.6
2023/09/11 17:00:00,26.0,20.4
2023/09/11 17:10:00,26.2,20.5
2023/09/11 17:20:00,26.1,20.5
2023/09/11 17:30:00,26.2,20.3
2023/09/11 17:40:00,26.1,20.1
2023/09/11 17:50:00,26.1,19.9
2023/09/11 18:00:00,26.2,19.8
2023/09/11 18:10:00,26.1,19.7
2023/09/11 18:20:00,26.1,19.5
2023/09/11 18:30:00,26.1,19.5
2023/09/11 18:40:00,26.1,19.2
2023/09/11 18:50:00,26.1,18.8
2023/09/11 19:00:00,26.1,18.7
2023/09/11 19:10:00,26.0,18.6
2023/09/11 19:20:00,26.0,18.7
2023/09/11 19:30:00,26.0,18.7
2023/09/11 19:40:00,25.9,18.7
2023/09/11 19:50:00,25.9,18.9
2023/09/11 20:00:00,25.8,18.7
2023/09/11 20:10:00,25.7,18.7
2023/09/11 20:20:00,25.8,18.8
2023/09/11 20:30:00,25.8,18.6
2023/09/11 20:40:00,25.7,18.6
2023/09/11 20:50:00,25.9,18.7
2023/09/11 21:00:00,25.8,18.6
2023/09/11 21:10:00,25.9,18.8
2023/09/11 21:20:00,25.9,18.9
2023/09/11 21:30:00,25.8,18.7
2023/09/11 21:40:00,25.8,18.5
2023/09/11 21:50:00,25.7,18.3
2023/09/11 22:00:00,25.9,18.3
2023/09/11 22:10:00,25.8,18.3
2023/09/11 22:20:00,25.8,18.3
2023/09/11 22:30:00,25.8,18.4
2023/09/11 22:40:00,25.9,18.6
2023/09/11 22:50:00,25.8,19.8
2023/09/11 23:00:00,25.9,18.5
2023/09/11 23:10:00,25.9,18.5
2023/09/11 23:20:00,25.9,18.1
2023/09/11 23:30:00,26.0,18.4
2023/09/11 23:40:00,26.0,18.4
2023/09/11 23:50:00,26.0,18.2
